EW5795 Weather Reports


Display with metric or nautical units.
time (UTC)temp
F
wind
direction
speed
MPH
gust
MPH
rain 1hr
in
rain 24hr
in
rain mn
in
humidity
%
barometer
mb
20260506090001 54 113 5.0 14.0 0.00 0.00 0.00 76 1008.6
20260506084501 54 63 5.0 13.0 0.00 0.00 0.00 75 1008.6
20260506083105 55 66 5.0 16.0 0.00 0.00 0.00 73 1008.5
20260506081559 57 41 4.0 12.0 0.00 0.00 0.00 73 1008.5
20260506073056 56 96 8.0 14.0 0.00 0.00 0.00 75 1008.3
20260506071553 56 55 8.0 16.0 0.00 0.00 0.00 76 1008.3
20260506061537 51 56 5.0 14.0 0.00 0.00 0.00 83 1008.1
20260506044524 50 34 2.0 7.0 0.00 0.00 0.00 83 1008.1
20260506043018 50 59 3.0 9.0 0.00 0.00 0.00 82 1008.0
20260506041518 50 34 4.0 10.0 0.00 0.00 0.00 82 1008.1
20260506040037 50 76 3.0 11.0 0.00 0.00 0.00 81 1008.1
20260506034513 50 135 5.0 10.0 0.00 0.00 0.00 81 1008.1
20260506033013 50 92 3.0 12.0 0.00 0.00 0.00 82 1008.2
20260506031526 50 44 3.0 10.0 0.00 0.00 0.00 83 1008.3
20260506030010 50 94 4.0 11.0 0.00 0.00 0.00 83 1008.4
20260506024517 50 49 2.0 8.0 0.00 0.00 0.00 83 1008.4
20260506023010 50 102 1.0 12.0 0.00 0.00 0.00 82 1008.5
20260506021510 50 59 1.0 8.0 0.00 0.00 0.00 82 1008.5
20260506020007 50 341 4.0 10.0 0.00 0.00 0.00 82 1008.5
20260506014506 50 31 2.0 11.0 0.00 0.00 0.00 82 1008.7
20260506013002 50 34 2.0 8.0 0.00 0.00 0.00 82 1008.7
20260506011502 50 92 3.0 9.0 0.00 0.00 0.00 82 1008.8
20260506010101 50 65 2.0 7.0 0.00 0.00 0.00 82 1008.8
20260506004559 49 78 4.0 12.0 0.00 0.00 0.00 83 1009.0
20260506003057 49 66 3.0 9.0 0.00 0.00 0.00 82 1009.1
20260506001556 49 88 4.0 10.0 0.00 0.00 0.00 82 1009.2
20260506000058 49 47 4.0 11.0 0.00 0.00 0.00 82 1009.3
20260505234558 49 72 3.0 12.0 0.00 0.00 0.00 83 1009.4
20260505233102 49 20 2.0 10.0 0.00 0.00 0.00 83 1009.6
20260505231553 49 108 2.0 8.0 0.00 0.00 0.00 82 1009.7
20260505230046 49 47 4.0 10.0 0.00 0.00 0.00 83 1009.7
20260505224545 49 107 2.0 6.0 0.00 0.00 0.00 83 1009.8
20260505223051 49 70 2.0 10.0 0.00 0.00 0.00 82 1009.8
20260505221541 49 42 5.0 11.0 0.00 0.00 0.00 82 1010.0
20260505220041 50 70 2.0 11.0 0.00 0.00 0.00 80 1010.1
20260505214547 50 11 3.0 13.0 0.00 0.00 0.00 80 1010.1
20260505213037 50 57 6.0 12.0 0.00 0.00 0.00 79 1010.2
20260505211537 49 82 2.0 10.0 0.00 0.00 0.00 78 1010.2
20260505210035 49 12 3.0 11.0 0.00 0.00 0.00 78 1010.3
20260505204536 49 30 3.0 11.0 0.00 0.00 0.00 78 1010.3
20260505203035 49 77 4.0 12.0 0.00 0.00 0.00 77 1010.2
20260505201535 49 37 4.0 12.0 0.00 0.00 0.00 76 1010.2
20260505200040 50 81 4.0 10.0 0.00 0.00 0.00 75 1010.1
20260505194533 50 72 3.0 11.0 0.00 0.00 0.00 75 1010.1
20260505193032 50 3 3.0 12.0 0.00 0.00 0.00 75 1010.0
20260505191532 51 353 2.0 11.0 0.00 0.00 0.00 75 1009.9
20260505190037 51 44 1.0 8.0 0.00 0.00 0.00 74 1009.9
20260505184531 51 24 3.0 10.0 0.00 0.00 0.00 74 1009.9
20260505183033 51 10 2.0 10.0 0.00 0.00 0.00 74 1009.8
20260505181530 51 34 2.0 8.0 0.00 0.00 0.00 73 1009.8
20260505180028 52 58 3.0 13.0 0.00 0.00 0.00 72 1009.9
20260505174537 53 26 2.0 11.0 0.00 0.00 0.00 72 1009.8
20260505173028 54 56 2.0 10.0 0.00 0.00 0.00 71 1010.0
20260505171528 55 30 2.0 15.0 0.00 0.00 0.00 70 1009.9
20260505170026 55 284 4.0 14.0 0.00 0.00 0.00 70 1009.9
20260505164526 55 318 3.0 11.0 0.00 0.00 0.00 70 1009.9
20260505163025 55 309 5.0 13.0 0.00 0.00 0.00 70 1009.9
20260505161525 56 57 7.0 15.0 0.00 0.00 0.00 70 1009.9
20260505153024 58 358 5.0 16.0 0.00 0.00 0.00 67 1009.9
20260505151524 59 71 4.0 14.0 0.00 0.00 0.00 66 1010.0
20260505124515 59 76 5.0 13.0 0.00 0.00 0.00 65 1010.5
20260505123012 59 58 5.0 13.0 0.00 0.00 0.00 64 1010.6
20260505121512 59 55 4.0 10.0 0.00 0.00 0.00 67 1010.7
20260505120010 58 46 6.0 16.0 0.00 0.00 0.00 67 1010.7
20260505114505 58 80 6.0 15.0 0.00 0.00 0.00 66 1010.8
20260505113002 58 75 6.0 18.0 0.00 0.00 0.00 69 1010.9
20260505111559 56 78 9.0 17.0 0.00 0.00 0.00 68 1011.0
20260505110117 56 61 7.0 12.0 0.00 0.00 0.00 69 1011.0
20260505101601 56 120 6.0 14.0 0.00 0.00 0.00 70 1011.4
20260505100057 55 70 4.0 12.0 0.00 0.00 0.00 70 1011.4
20260505094556 56 45 6.0 13.0 0.00 0.00 0.00 69 1011.2
20260505093053 56 88 4.0 14.0 0.00 0.00 0.00 70 1011.0
20260505091552 56 100 6.0 14.0 0.00 0.00 0.00 70 1011.0